| time (UTC) | temp F | wind direction | speed MPH | gust MPH | rain 1hr in | rain 24hr in | rain mn in | humidity % | barometer mb |
| 20260903192712 | 95 | 284 | 1.0 | 3.0 | 0.00 | 0.00 | 0.00 | 69 | 1015.1 |
| 20260903192433 | 95 | 288 | 2.0 | 5.0 | 0.00 | 0.00 | 0.00 | 66 | 1015.2 |
| 20260903191712 | 94 | 288 | 2.0 | 5.0 | 0.00 | 0.00 | 0.00 | 67 | 1015.3 |
| 20260903191210 | 94 | 289 | 3.0 | 7.0 | 0.00 | 0.00 | 0.00 | 67 | 1015.4 |
| 20260903190705 | 95 | 288 | 3.0 | 7.0 | 0.00 | 0.00 | 0.00 | 66 | 1015.3 |
| 20260903190159 | 94 | 248 | 2.0 | 6.0 | 0.00 | 0.00 | 0.00 | 67 | 1015.5 |
| 20260903185651 | 94 | 313 | 1.0 | 4.0 | 0.00 | 0.00 | 0.00 | 68 | 1015.5 |
| 20260903185147 | 94 | 323 | 2.0 | 4.0 | 0.00 | 0.00 | 0.00 | 68 | 1015.6 |
| 20260903185116 | 93 | 311 | 2.0 | 5.0 | 0.00 | 0.00 | 0.00 | 67 | 1015.7 |
| 20260903184355 | 93 | 296 | 2.0 | 5.0 | 0.00 | 0.00 | 0.00 | 69 | 1015.7 |
| 20260903183848 | 93 | 44 | 2.0 | 5.0 | 0.00 | 0.00 | 0.00 | 69 | 1015.9 |
| 20260903183123 | 94 | 36 | 2.0 | 5.0 | 0.00 | 0.00 | 0.00 | 68 | 1015.9 |
| 20260903182616 | 94 | 294 | 1.0 | 5.0 | 0.00 | 0.00 | 0.00 | 68 | 1016.0 |
| 20260903182112 | 94 | 296 | 0.0 | 2.0 | 0.00 | 0.00 | 0.00 | 70 | 1016.1 |
| 20260903181605 | 94 | 249 | 2.0 | 5.0 | 0.00 | 0.00 | 0.00 | 69 | 1016.1 |
| 20260903181058 | 94 | 249 | 3.0 | 6.0 | 0.00 | 0.00 | 0.00 | 68 | 1016.1 |
| 20260903180606 | 94 | 258 | 2.0 | 6.0 | 0.00 | 0.00 | 0.00 | 68 | 1016.1 |
| 20260903180059 | 94 | 291 | 2.0 | 5.0 | 0.00 | 0.00 | 0.00 | 70 | 1016.2 |
| 20260903175756 | 93 | 257 | 2.0 | 4.0 | 0.00 | 0.00 | 0.00 | 70 | 1016.3 |
| 20260903175036 | 93 | 296 | 2.0 | 4.0 | 0.00 | 0.00 | 0.00 | 69 | 1016.3 |
| 20260903174542 | 93 | 261 | 1.0 | 3.0 | 0.00 | 0.00 | 0.00 | 69 | 1016.3 |
| 20260903174037 | 93 | 205 | 1.0 | 3.0 | 0.00 | 0.00 | 0.00 | 68 | 1016.4 |
| 20260903173737 | 93 | 212 | 1.0 | 4.0 | 0.00 | 0.00 | 0.00 | 69 | 1016.4 |
| 20260903173231 | 92 | 210 | 1.0 | 4.0 | 0.00 | 0.00 | 0.00 | 70 | 1016.4 |
| 20260903172741 | 92 | 195 | 1.0 | 4.0 | 0.00 | 0.00 | 0.00 | 71 | 1016.4 |
| 20260903172218 | 92 | 268 | 1.0 | 4.0 | 0.00 | 0.00 | 0.00 | 71 | 1016.5 |
| 20260903171452 | 91 | 228 | 1.0 | 3.0 | 0.00 | 0.00 | 0.00 | 70 | 1016.6 |
| 20260903171208 | 91 | 39 | 0.0 | 2.0 | 0.00 | 0.00 | 0.00 | 72 | 1016.6 |
| 20260903170439 | 90 | 39 | 0.0 | 2.0 | 0.00 | 0.00 | 0.00 | 73 | 1016.6 |
| 20260903165934 | 90 | 39 | 2.0 | 4.0 | 0.00 | 0.00 | 0.00 | 74 | 1016.6 |
| 20260903165428 | 90 | 39 | 3.0 | 9.0 | 0.00 | 0.00 | 0.00 | 74 | 1016.7 |
| 20260903164921 | 90 | 35 | 4.0 | 9.0 | 0.00 | 0.00 | 0.00 | 75 | 1016.8 |
| 20260903164417 | 90 | 116 | 3.0 | 8.0 | 0.00 | 0.00 | 0.00 | 74 | 1016.8 |
| 20260903163911 | 90 | 29 | 1.0 | 5.0 | 0.00 | 0.00 | 0.00 | 74 | 1016.7 |
| 20260903163405 | 90 | 149 | 1.0 | 4.0 | 0.00 | 0.00 | 0.00 | 76 | 1016.8 |
| 20260903163121 | 89 | 201 | 2.0 | 5.0 | 0.00 | 0.00 | 0.00 | 77 | 1016.8 |
| 20260903162353 | 89 | 24 | 2.0 | 8.0 | 0.00 | 0.00 | 0.00 | 76 | 1016.8 |
| 20260903161847 | 89 | 76 | 2.0 | 8.0 | 0.00 | 0.00 | 0.00 | 75 | 1016.9 |
| 20260903161602 | 89 | 178 | 1.0 | 3.0 | 0.00 | 0.00 | 0.00 | 77 | 1017.0 |
| 20260903160835 | 88 | 58 | 1.0 | 3.0 | 0.00 | 0.00 | 0.00 | 76 | 1017.1 |
| 20260903160328 | 88 | 7 | 1.0 | 3.0 | 0.00 | 0.00 | 0.00 | 77 | 1017.1 |
| 20260903155824 | 87 | 236 | 1.0 | 4.0 | 0.00 | 0.00 | 0.00 | 76 | 1017.3 |
| 20260903155322 | 87 | 20 | 2.0 | 4.0 | 0.00 | 0.00 | 0.00 | 77 | 1017.3 |
| 20260903154822 | 87 | 51 | 3.0 | 6.0 | 0.00 | 0.00 | 0.00 | 79 | 1017.3 |
| 20260903154320 | 87 | 46 | 4.0 | 9.0 | 0.00 | 0.00 | 0.00 | 80 | 1017.3 |
| 20260903154048 | 87 | 19 | 3.0 | 9.0 | 0.00 | 0.00 | 0.00 | 79 | 1017.5 |
| 20260903153319 | 87 | 5 | 3.0 | 6.0 | 0.00 | 0.00 | 0.00 | 79 | 1017.5 |
| 20260903153045 | 87 | 34 | 2.0 | 6.0 | 0.00 | 0.00 | 0.00 | 79 | 1017.4 |
| 20260903152545 | 87 | 88 | 1.0 | 7.0 | 0.00 | 0.00 | 0.00 | 80 | 1017.4 |
| 20260903151817 | 86 | 69 | 2.0 | 7.0 | 0.00 | 0.00 | 0.00 | 79 | 1017.3 |
| 20260903151315 | 86 | 125 | 2.0 | 5.0 | 0.00 | 0.00 | 0.00 | 80 | 1017.3 |
| 20260903151031 | 85 | 43 | 2.0 | 5.0 | 0.00 | 0.00 | 0.00 | 80 | 1017.4 |
| 20260903150318 | 85 | 321 | 2.0 | 4.0 | 0.00 | 0.00 | 0.00 | 81 | 1017.3 |
| 20260903145806 | 85 | 28 | 2.0 | 5.0 | 0.00 | 0.00 | 0.00 | 83 | 1017.3 |
| 20260903145252 | 84 | 28 | 2.0 | 5.0 | 0.00 | 0.00 | 0.00 | 82 | 1017.4 |
| 20260903144747 | 84 | 6 | 1.0 | 5.0 | 0.00 | 0.00 | 0.00 | 84 | 1017.4 |
| 20260903144725 | 83 | 27 | 2.0 | 4.0 | 0.00 | 0.00 | 0.00 | 85 | 1017.4 |
| 20260903143955 | 83 | 12 | 2.0 | 4.0 | 0.00 | 0.00 | 0.00 | 86 | 1017.4 |
| 20260903143228 | 83 | 106 | 2.0 | 5.0 | 0.00 | 0.00 | 0.00 | 87 | 1017.3 |
| 20260903142723 | 82 | 16 | 2.0 | 5.0 | 0.00 | 0.00 | 0.00 | 88 | 1017.4 |
| 20260903142217 | 81 | 3 | 3.0 | 6.0 | 0.00 | 0.00 | 0.00 | 89 | 1017.5 |
| 20260903141711 | 81 | 59 | 3.0 | 6.0 | 0.00 | 0.00 | 0.00 | 90 | 1017.3 |
| 20260903141205 | 80 | 53 | 2.0 | 6.0 | 0.00 | 0.00 | 0.00 | 91 | 1017.4 |
| 20260903140659 | 80 | 59 | 2.0 | 4.0 | 0.00 | 0.00 | 0.00 | 92 | 1017.4 |
| 20260903140152 | 80 | 322 | 2.0 | 4.0 | 0.00 | 0.00 | 0.00 | 92 | 1017.3 |
| 20260903135647 | 80 | 245 | 3.0 | 6.0 | 0.00 | 0.00 | 0.00 | 93 | 1017.2 |
| 20260903135143 | 79 | 242 | 2.0 | 6.0 | 0.00 | 0.00 | 0.00 | 93 | 1017.2 |
| 20260903134854 | 79 | 290 | 1.0 | 3.0 | 0.00 | 0.00 | 0.00 | 93 | 1017.1 |
| 20260903134129 | 79 | 290 | 2.0 | 3.0 | 0.00 | 0.00 | 0.00 | 93 | 1017.2 |
| 20260903133623 | 79 | 288 | 1.0 | 3.0 | 0.00 | 0.00 | 0.00 | 93 | 1017.1 |
| 20260903133118 | 78 | 252 | 1.0 | 3.0 | 0.00 | 0.00 | 0.00 | 93 | 1017.1 |
| 20260903132614 | 78 | 252 | 1.0 | 3.0 | 0.00 | 0.00 | 0.00 | 93 | 1017.1 |
| 20260903132104 | 78 | 205 | 1.0 | 3.0 | 0.00 | 0.00 | 0.00 | 93 | 1017.1 |
| 20260903131601 | 78 | 217 | 1.0 | 3.0 | 0.00 | 0.00 | 0.00 | 93 | 1017.3 |
| 20260903131058 | 78 | 255 | 0.0 | 2.0 | 0.00 | 0.00 | 0.00 | 93 | 1017.4 |
| 20260903130558 | 78 | 254 | 1.0 | 3.0 | 0.00 | 0.00 | 0.00 | 93 | 1017.4 |
| 20260903130056 | 78 | 254 | 1.0 | 3.0 | 0.00 | 0.00 | 0.00 | 93 | 1017.4 |
| 20260903125549 | 77 | 199 | 1.0 | 3.0 | 0.00 | 0.00 | 0.00 | 93 | 1017.3 |
| 20260903125031 | 77 | 199 | 1.0 | 2.0 | 0.00 | 0.00 | 0.00 | 93 | 1017.4 |
| 20260903124524 | 77 | 199 | 0.0 | 2.0 | 0.00 | 0.00 | 0.00 | 93 | 1017.5 |
| 20260903124017 | 77 | 199 | 1.0 | 2.0 | 0.00 | 0.00 | 0.00 | 93 | 1017.7 |
| 20260903123523 | 77 | 200 | 1.0 | 2.0 | 0.00 | 0.00 | 0.00 | 93 | 1017.6 |
| 20260903123017 | 77 | 199 | 0.0 | 2.0 | 0.00 | 0.00 | 0.00 | 93 | 1017.6 |
| 20260903122737 | 77 | 200 | 0.0 | 2.0 | 0.00 | 0.00 | 0.00 | 93 | 1017.6 |
| 20260903122300 | 77 | 200 | 0.0 | 2.0 | 0.00 | 0.00 | 0.00 | 93 | 1017.6 |
| 20260903121528 | 76 | 199 | 0.0 | 2.0 | 0.00 | 0.00 | 0.00 | 93 | 1017.6 |
| 20260903121237 | 76 | 184 | 0.0 | 2.0 | 0.00 | 0.00 | 0.00 | 93 | 1017.4 |
| 20260903120528 | 76 | 184 | 1.0 | 3.0 | 0.00 | 0.00 | 0.00 | 93 | 1017.2 |
| 20260903120016 | 76 | 180 | 1.0 | 3.0 | 0.00 | 0.00 | 0.00 | 93 | 1017.2 |
| 20260903115514 | 76 | 47 | 0.0 | 1.0 | 0.00 | 0.00 | 0.00 | 93 | 1017.2 |
| 20260903115010 | 76 | 47 | 0.0 | 2.0 | 0.00 | 0.00 | 0.00 | 93 | 1017.1 |
| 20260903114511 | 76 | 47 | 0.0 | 2.0 | 0.00 | 0.00 | 0.00 | 93 | 1017.1 |
| 20260903114007 | 76 | 47 | 0.0 | 2.0 | 0.00 | 0.00 | 0.00 | 92 | 1017.1 |
| 20260903113508 | 76 | 47 | 1.0 | 2.0 | 0.00 | 0.00 | 0.00 | 93 | 1017.1 |
| 20260903113020 | 76 | 47 | 0.0 | 2.0 | 0.00 | 0.00 | 0.00 | 93 | 1016.9 |
| 20260903112511 | 76 | 313 | 0.0 | 0.0 | 0.00 | 0.00 | 0.00 | 93 | 1016.9 |
| 20260903112015 | 76 | 312 | 0.0 | 0.0 | 0.00 | 0.00 | 0.00 | 93 | 1016.9 |
| 20260903111722 | 76 | 313 | 0.0 | 0.0 | 0.00 | 0.00 | 0.00 | 93 | 1017.0 |
| 20260903111017 | 76 | 313 | 0.0 | 0.0 | 0.00 | 0.00 | 0.00 | 93 | 1017.0 |
| 20260903110530 | 75 | 313 | 0.0 | 0.0 | 0.00 | 0.00 | 0.00 | 93 | 1016.9 |
| 20260903110004 | 75 | 312 | 0.0 | 0.0 | 0.00 | 0.00 | 0.00 | 92 | 1016.9 |
| 20260903105504 | 75 | 312 | 0.0 | 0.0 | 0.00 | 0.00 | 0.00 | 92 | 1016.8 |
| 20260903105003 | 75 | 313 | 0.0 | 0.0 | 0.00 | 0.00 | 0.00 | 92 | 1016.8 |
| 20260903104505 | 75 | 313 | 0.0 | 0.0 | 0.00 | 0.00 | 0.00 | 92 | 1016.8 |
| 20260903104003 | 75 | 313 | 0.0 | 0.0 | 0.00 | 0.00 | 0.00 | 92 | 1016.7 |
| 20260903103727 | 75 | 314 | 0.0 | 0.0 | 0.00 | 0.00 | 0.00 | 92 | 1016.6 |
| 20260903103003 | 75 | 312 | 0.0 | 0.0 | 0.00 | 0.00 | 0.00 | 92 | 1016.6 |
| 20260903102505 | 75 | 312 | 0.0 | 0.0 | 0.00 | 0.00 | 0.00 | 93 | 1016.6 |
| 20260903102002 | 75 | 312 | 0.0 | 0.0 | 0.00 | 0.00 | 0.00 | 92 | 1016.7 |
| 20260903101506 | 75 | 312 | 0.0 | 0.0 | 0.00 | 0.00 | 0.00 | 92 | 1016.7 |
| 20260903101005 | 75 | 23 | 0.0 | 0.0 | 0.00 | 0.00 | 0.00 | 92 | 1016.7 |
| 20260903100505 | 75 | 24 | 0.0 | 0.0 | 0.00 | 0.00 | 0.00 | 92 | 1016.7 |
| 20260903100004 | 75 | 23 | 0.0 | 0.0 | 0.00 | 0.00 | 0.00 | 92 | 1016.6 |
| 20260903095507 | 75 | 23 | 0.0 | 0.0 | 0.00 | 0.00 | 0.00 | 92 | 1016.5 |
| 20260903094955 | 75 | 23 | 0.0 | 0.0 | 0.00 | 0.00 | 0.00 | 92 | 1016.4 |
| 20260903094451 | 75 | 23 | 0.0 | 0.0 | 0.00 | 0.00 | 0.00 | 92 | 1016.4 |
| 20260903094210 | 75 | 23 | 0.0 | 0.0 | 0.00 | 0.00 | 0.00 | 92 | 1016.4 |
| 20260903093438 | 75 | 23 | 0.0 | 0.0 | 0.00 | 0.00 | 0.00 | 92 | 1016.4 |
| 20260903093133 | 75 | 23 | 0.0 | 0.0 | 0.00 | 0.00 | 0.00 | 92 | 1016.5 |
| 20260903093017 | 75 | 23 | 0.0 | 0.0 | 0.00 | 0.00 | 0.00 | 92 | 1016.4 |
| 20260903091921 | 75 | 23 | 0.0 | 0.0 | 0.00 | 0.00 | 0.00 | 92 | 1016.4 |
| 20260903091414 | 75 | 23 | 0.0 | 0.0 | 0.00 | 0.00 | 0.00 | 92 | 1016.4 |
| 20260903091131 | 75 | 23 | 0.0 | 0.0 | 0.00 | 0.00 | 0.00 | 92 | 1016.5 |
| 20260903090401 | 75 | 23 | 0.0 | 0.0 | 0.00 | 0.00 | 0.00 | 92 | 1016.4 |
| 20260903085856 | 75 | 23 | 0.0 | 0.0 | 0.00 | 0.00 | 0.00 | 92 | 1016.4 |
| 20260903085614 | 75 | 23 | 0.0 | 0.0 | 0.00 | 0.00 | 0.00 | 92 | 1016.3 |
| 20260903085104 | 75 | 23 | 0.0 | 0.0 | 0.00 | 0.00 | 0.00 | 92 | 1016.4 |
| 20260903084339 | 74 | 23 | 0.0 | 0.0 | 0.00 | 0.00 | 0.00 | 92 | 1016.4 |
| 20260903083832 | 74 | 22 | 0.0 | 0.0 | 0.00 | 0.00 | 0.00 | 92 | 1016.4 |
| 20260903083327 | 74 | 23 | 0.0 | 0.0 | 0.00 | 0.00 | 0.00 | 92 | 1016.3 |
| 20260903082819 | 74 | 23 | 0.0 | 0.0 | 0.00 | 0.00 | 0.00 | 92 | 1016.3 |
| 20260903082313 | 74 | 23 | 0.0 | 0.0 | 0.00 | 0.00 | 0.00 | 92 | 1016.4 |
| 20260903081809 | 74 | 23 | 0.0 | 0.0 | 0.00 | 0.00 | 0.00 | 92 | 1016.4 |
| 20260903081303 | 74 | 23 | 0.0 | 0.0 | 0.00 | 0.00 | 0.00 | 92 | 1016.5 |
| 20260903080756 | 74 | 23 | 0.0 | 0.0 | 0.00 | 0.00 | 0.00 | 92 | 1016.5 |
| 20260903080251 | 74 | 23 | 0.0 | 0.0 | 0.00 | 0.00 | 0.00 | 92 | 1016.4 |
| 20260903075745 | 74 | 23 | 0.0 | 0.0 | 0.00 | 0.00 | 0.00 | 92 | 1016.2 |
| 20260903075237 | 74 | 23 | 0.0 | 0.0 | 0.00 | 0.00 | 0.00 | 92 | 1016.2 |
| 20260903074731 | 74 | 23 | 0.0 | 0.0 | 0.00 | 0.00 | 0.00 | 92 | 1016.3 |
| 20260903074227 | 74 | 23 | 0.0 | 0.0 | 0.00 | 0.00 | 0.00 | 92 | 1016.3 |
| 20260903073943 | 74 | 22 | 0.0 | 0.0 | 0.00 | 0.00 | 0.00 | 92 | 1016.3 |
| 20260903073214 | 74 | 23 | 0.0 | 0.0 | 0.00 | 0.00 | 0.00 | 91 | 1016.2 |
| 20260903072931 | 74 | 23 | 0.0 | 0.0 | 0.00 | 0.00 | 0.00 | 92 | 1016.3 |
| 20260903072201 | 74 | 23 | 0.0 | 0.0 | 0.00 | 0.00 | 0.00 | 92 | 1016.3 |
| 20260903071656 | 74 | 23 | 0.0 | 0.0 | 0.00 | 0.00 | 0.00 | 91 | 1016.3 |
| 20260903071150 | 74 | 23 | 0.0 | 0.0 | 0.00 | 0.00 | 0.00 | 91 | 1016.3 |
| 20260903070656 | 74 | 23 | 0.0 | 0.0 | 0.00 | 0.00 | 0.00 | 91 | 1016.2 |
| 20260903070139 | 74 | 22 | 0.0 | 0.0 | 0.00 | 0.00 | 0.00 | 91 | 1016.2 |
| 20260903065854 | 74 | 23 | 0.0 | 0.0 | 0.00 | 0.00 | 0.00 | 91 | 1016.2 |
| 20260903065126 | 74 | 23 | 0.0 | 0.0 | 0.00 | 0.00 | 0.00 | 91 | 1016.3 |
| 20260903064622 | 74 | 23 | 0.0 | 0.0 | 0.00 | 0.00 | 0.00 | 91 | 1016.4 |
| 20260903064116 | 74 | 23 | 0.0 | 0.0 | 0.00 | 0.00 | 0.00 | 91 | 1016.3 |
| 20260903063607 | 74 | 23 | 0.0 | 0.0 | 0.00 | 0.00 | 0.00 | 91 | 1016.3 |
| 20260903063102 | 74 | 23 | 0.0 | 0.0 | 0.00 | 0.00 | 0.00 | 91 | 1016.3 |
| 20260903062556 | 74 | 23 | 0.0 | 0.0 | 0.00 | 0.00 | 0.00 | 91 | 1016.4 |
| 20260903062051 | 75 | 23 | 0.0 | 0.0 | 0.00 | 0.00 | 0.00 | 91 | 1016.4 |
| 20260903061808 | 75 | 23 | 0.0 | 0.0 | 0.00 | 0.00 | 0.00 | 91 | 1016.5 |
| 20260903061039 | 75 | 23 | 0.0 | 0.0 | 0.00 | 0.00 | 0.00 | 91 | 1016.6 |
| 20260903060534 | 75 | 23 | 0.0 | 0.0 | 0.00 | 0.00 | 0.00 | 91 | 1016.8 |
| 20260903060256 | 75 | 23 | 0.0 | 0.0 | 0.00 | 0.00 | 0.00 | 91 | 1016.8 |
| 20260903055751 | 75 | 23 | 0.0 | 0.0 | 0.00 | 0.00 | 0.00 | 91 | 1016.8 |
| 20260903055014 | 75 | 23 | 0.0 | 0.0 | 0.00 | 0.00 | 0.00 | 91 | 1017.0 |
| 20260903054510 | 75 | 23 | 0.0 | 0.0 | 0.00 | 0.00 | 0.00 | 91 | 1017.0 |
| 20260903054006 | 75 | 23 | 0.0 | 0.0 | 0.00 | 0.00 | 0.00 | 91 | 1016.9 |
| 20260903053456 | 75 | 23 | 0.0 | 0.0 | 0.00 | 0.00 | 0.00 | 91 | 1016.9 |
| 20260903052951 | 75 | 23 | 0.0 | 0.0 | 0.00 | 0.00 | 0.00 | 91 | 1017.0 |
| 20260903052445 | 75 | 23 | 0.0 | 0.0 | 0.00 | 0.00 | 0.00 | 91 | 1017.0 |
| 20260903052426 | 75 | 23 | 0.0 | 0.0 | 0.00 | 0.00 | 0.00 | 91 | 1017.0 |
| 20260903051654 | 75 | 23 | 0.0 | 0.0 | 0.00 | 0.00 | 0.00 | 91 | 1016.9 |
| 20260903051149 | 75 | 23 | 0.0 | 0.0 | 0.00 | 0.00 | 0.00 | 91 | 1016.8 |
| 20260903050419 | 75 | 23 | 0.0 | 0.0 | 0.00 | 0.00 | 0.00 | 91 | 1016.9 |
| 20260903045914 | 75 | 23 | 0.0 | 0.0 | 0.00 | 0.00 | 0.00 | 91 | 1016.9 |
| 20260903045408 | 75 | 23 | 0.0 | 0.0 | 0.00 | 0.00 | 0.00 | 91 | 1016.8 |
| 20260903044901 | 75 | 23 | 0.0 | 0.0 | 0.00 | 0.00 | 0.00 | 91 | 1016.8 |
| 20260903044356 | 75 | 23 | 0.0 | 0.0 | 0.00 | 0.00 | 0.00 | 91 | 1016.9 |
| 20260903043850 | 75 | 23 | 0.0 | 0.0 | 0.00 | 0.00 | 0.00 | 91 | 1016.9 |
| 20260903043343 | 75 | 23 | 0.0 | 0.0 | 0.00 | 0.00 | 0.00 | 91 | 1016.9 |
| 20260903042838 | 75 | 23 | 0.0 | 0.0 | 0.00 | 0.00 | 0.00 | 91 | 1016.8 |
| 20260903042332 | 75 | 24 | 0.0 | 0.0 | 0.00 | 0.00 | 0.00 | 90 | 1016.9 |
| 20260903041825 | 75 | 23 | 0.0 | 0.0 | 0.00 | 0.00 | 0.00 | 91 | 1017.1 |
| 20260903041321 | 76 | 23 | 0.0 | 0.0 | 0.00 | 0.00 | 0.00 | 91 | 1017.0 |
| 20260903040814 | 76 | 23 | 0.0 | 0.0 | 0.00 | 0.00 | 0.00 | 91 | 1016.7 |
| 20260903040308 | 76 | 23 | 0.0 | 0.0 | 0.00 | 0.00 | 0.00 | 90 | 1016.6 |
| 20260903035801 | 76 | 23 | 0.0 | 0.0 | 0.00 | 0.00 | 0.00 | 91 | 1016.7 |
| 20260903035257 | 76 | 23 | 0.0 | 0.0 | 0.00 | 0.00 | 0.00 | 90 | 1016.7 |
| 20260903034752 | 76 | 23 | 0.0 | 0.0 | 0.00 | 0.00 | 0.00 | 90 | 1016.8 |
| 20260903034243 | 76 | 23 | 0.0 | 0.0 | 0.00 | 0.00 | 0.00 | 90 | 1016.8 |
| 20260903033739 | 76 | 23 | 0.0 | 0.0 | 0.00 | 0.00 | 0.00 | 90 | 1016.6 |
| 20260903033232 | 76 | 23 | 0.0 | 0.0 | 0.00 | 0.00 | 0.00 | 90 | 1016.7 |
| 20260903032725 | 76 | 23 | 0.0 | 0.0 | 0.00 | 0.00 | 0.00 | 90 | 1016.7 |
| 20260903032220 | 76 | 23 | 0.0 | 0.0 | 0.00 | 0.00 | 0.00 | 90 | 1016.7 |
| 20260903031716 | 76 | 22 | 0.0 | 0.0 | 0.00 | 0.00 | 0.00 | 90 | 1016.7 |
| 20260903031432 | 76 | 22 | 0.0 | 0.0 | 0.00 | 0.00 | 0.00 | 90 | 1016.6 |
| 20260903030702 | 76 | 23 | 0.0 | 0.0 | 0.00 | 0.00 | 0.00 | 90 | 1016.6 |
| 20260903030156 | 76 | 23 | 0.0 | 0.0 | 0.00 | 0.00 | 0.00 | 90 | 1016.7 |
| 20260903025652 | 76 | 23 | 0.0 | 0.0 | 0.00 | 0.00 | 0.00 | 90 | 1016.9 |
| 20260903025145 | 76 | 22 | 0.0 | 0.0 | 0.00 | 0.00 | 0.00 | 90 | 1017.1 |
| 20260903024639 | 76 | 55 | 0.0 | 2.0 | 0.00 | 0.00 | 0.00 | 90 | 1017.2 |
| 20260903024351 | 76 | 59 | 0.0 | 2.0 | 0.00 | 0.00 | 0.00 | 89 | 1017.2 |
| 20260903023625 | 76 | 59 | 1.0 | 3.0 | 0.00 | 0.00 | 0.00 | 89 | 1017.0 |
| 20260903023119 | 76 | 59 | 0.0 | 3.0 | 0.00 | 0.00 | 0.00 | 89 | 1017.1 |
| 20260903022614 | 76 | 59 | 0.0 | 2.0 | 0.00 | 0.00 | 0.00 | 89 | 1017.1 |
| 20260903022109 | 76 | 59 | 2.0 | 5.0 | 0.00 | 0.00 | 0.00 | 89 | 1017.0 |
| 20260903021826 | 76 | 59 | 3.0 | 5.0 | 0.00 | 0.00 | 0.00 | 89 | 1017.1 |
| 20260903021055 | 77 | 59 | 1.0 | 4.0 | 0.00 | 0.00 | 0.00 | 89 | 1017.1 |
| 20260903020551 | 77 | 238 | 0.0 | 2.0 | 0.00 | 0.00 | 0.00 | 88 | 1017.0 |
| 20260903020057 | 77 | 238 | 0.0 | 2.0 | 0.00 | 0.00 | 0.00 | 88 | 1017.0 |
| 20260903015539 | 77 | 238 | 0.0 | 2.0 | 0.00 | 0.00 | 0.00 | 88 | 1017.1 |
| 20260903015033 | 78 | 238 | 0.0 | 1.0 | 0.00 | 0.00 | 0.00 | 88 | 1017.2 |
| 20260903014525 | 78 | 238 | 0.0 | 2.0 | 0.00 | 0.00 | 0.00 | 88 | 1017.2 |
| 20260903014021 | 78 | 238 | 0.0 | 2.0 | 0.00 | 0.00 | 0.00 | 88 | 1017.1 |
| 20260903013746 | 78 | 238 | 0.0 | 0.0 | 0.00 | 0.00 | 0.00 | 87 | 1017.0 |
| 20260903013243 | 78 | 238 | 0.0 | 0.0 | 0.00 | 0.00 | 0.00 | 87 | 1017.0 |
| 20260903012520 | 78 | 238 | 0.0 | 0.0 | 0.00 | 0.00 | 0.00 | 87 | 1016.9 |
| 20260903012021 | 78 | 238 | 0.0 | 0.0 | 0.00 | 0.00 | 0.00 | 87 | 1017.1 |
| 20260903011521 | 78 | 238 | 0.0 | 0.0 | 0.00 | 0.00 | 0.00 | 87 | 1017.3 |
| 20260903011014 | 78 | 238 | 0.0 | 0.0 | 0.00 | 0.00 | 0.00 | 87 | 1017.3 |
| 20260903010507 | 78 | 232 | 0.0 | 0.0 | 0.00 | 0.00 | 0.00 | 86 | 1017.1 |
| 20260903010004 | 79 | 232 | 0.0 | 0.0 | 0.00 | 0.00 | 0.00 | 86 | 1017.0 |
| 20260903005941 | 79 | 232 | 0.0 | 0.0 | 0.00 | 0.00 | 0.00 | 86 | 1017.0 |
| 20260903004950 | 79 | 232 | 0.0 | 0.0 | 0.00 | 0.00 | 0.00 | 86 | 1016.9 |
| 20260903004443 | 79 | 233 | 0.0 | 0.0 | 0.00 | 0.00 | 0.00 | 86 | 1016.8 |
| 20260903003938 | 79 | 232 | 0.0 | 0.0 | 0.00 | 0.00 | 0.00 | 85 | 1016.7 |
| 20260903003435 | 79 | 232 | 0.0 | 0.0 | 0.00 | 0.00 | 0.00 | 85 | 1016.6 |
| 20260903002927 | 80 | 232 | 0.0 | 0.0 | 0.00 | 0.00 | 0.00 | 85 | 1016.4 |
| 20260903002643 | 80 | 232 | 0.0 | 0.0 | 0.00 | 0.00 | 0.00 | 84 | 1016.1 |
| 20260903001917 | 80 | 232 | 0.0 | 0.0 | 0.00 | 0.00 | 0.00 | 84 | 1016.2 |
| 20260903001419 | 80 | 232 | 0.0 | 0.0 | 0.00 | 0.00 | 0.00 | 84 | 1016.4 |
| 20260903000930 | 80 | 232 | 0.0 | 0.0 | 0.00 | 0.00 | 0.00 | 84 | 1016.4 |
| 20260903000420 | 80 | 231 | 0.0 | 0.0 | 0.00 | 0.00 | 0.00 | 83 | 1016.5 |
| 20260902235920 | 80 | 231 | 0.0 | 0.0 | 0.00 | 0.00 | 0.00 | 83 | 1016.6 |
| 20260902235418 | 81 | 232 | 0.0 | 0.0 | 0.00 | 0.00 | 0.00 | 82 | 1016.5 |
| 20260902234918 | 81 | 232 | 0.0 | 1.0 | 0.00 | 0.00 | 0.00 | 82 | 1016.6 |
| 20260902234415 | 81 | 232 | 0.0 | 2.0 | 0.00 | 0.00 | 0.00 | 82 | 1016.7 |
| 20260902233913 | 81 | 231 | 1.0 | 2.0 | 0.00 | 0.00 | 0.00 | 82 | 1016.8 |
| 20260902233643 | 81 | 211 | 0.0 | 2.0 | 0.00 | 0.00 | 0.00 | 81 | 1016.6 |
| 20260902232912 | 82 | 209 | 1.0 | 2.0 | 0.00 | 0.00 | 0.00 | 81 | 1016.5 |
| 20260902232410 | 82 | 209 | 1.0 | 3.0 | 0.00 | 0.00 | 0.00 | 81 | 1016.6 |
| 20260902232403 | 82 | 207 | 1.0 | 3.0 | 0.00 | 0.00 | 0.00 | 81 | 1016.4 |
| 20260902231411 | 82 | 355 | 1.0 | 2.0 | 0.00 | 0.00 | 0.00 | 81 | 1016.5 |
| 20260902230909 | 82 | 355 | 1.0 | 4.0 | 0.00 | 0.00 | 0.00 | 81 | 1016.8 |
| 20260902230406 | 82 | 359 | 1.0 | 4.0 | 0.00 | 0.00 | 0.00 | 80 | 1017.0 |
| 20260902225905 | 82 | 152 | 1.0 | 4.0 | 0.00 | 0.00 | 0.00 | 80 | 1017.0 |
| 20260902225408 | 82 | 153 | 1.0 | 4.0 | 0.00 | 0.00 | 0.00 | 80 | 1017.1 |
| 20260902224907 | 82 | 54 | 1.0 | 3.0 | 0.00 | 0.00 | 0.00 | 80 | 1017.1 |
| 20260902224403 | 83 | 52 | 1.0 | 3.0 | 0.00 | 0.00 | 0.00 | 80 | 1016.9 |
| 20260902223858 | 83 | 51 | 1.0 | 3.0 | 0.00 | 0.00 | 0.00 | 80 | 1017.1 |
| 20260902223358 | 83 | 51 | 1.0 | 5.0 | 0.00 | 0.00 | 0.00 | 79 | 1017.1 |
| 20260902222857 | 83 | 157 | 2.0 | 7.0 | 0.00 | 0.00 | 0.00 | 80 | 1016.9 |
| 20260902222356 | 83 | 79 | 3.0 | 7.0 | 0.00 | 0.00 | 0.00 | 80 | 1016.9 |
| 20260902221855 | 83 | 81 | 4.0 | 8.0 | 0.00 | 0.00 | 0.00 | 80 | 1016.9 |
| 20260902221614 | 83 | 39 | 5.0 | 9.0 | 0.00 | 0.00 | 0.00 | 79 | 1017.3 |
| 20260902220856 | 83 | 43 | 5.0 | 9.0 | 0.00 | 0.00 | 0.00 | 79 | 1017.2 |
| 20260902220354 | 84 | 58 | 5.0 | 10.0 | 0.00 | 0.00 | 0.00 | 79 | 1017.3 |
| 20260902215855 | 84 | 55 | 6.0 | 11.0 | 0.00 | 0.00 | 0.00 | 79 | 1017.5 |
| 20260902215355 | 84 | 46 | 7.0 | 13.0 | 0.00 | 0.00 | 0.00 | 79 | 1017.9 |
| 20260902214851 | 85 | 56 | 9.0 | 18.0 | 0.00 | 0.00 | 0.00 | 79 | 1018.2 |
| 20260902214611 | 85 | 78 | 11.0 | 18.0 | 0.00 | 0.00 | 0.00 | 78 | 1017.9 |
| 20260902213851 | 86 | 49 | 10.0 | 15.0 | 0.00 | 0.00 | 0.00 | 78 | 1017.6 |
| 20260902213353 | 86 | 64 | 11.0 | 16.0 | 0.00 | 0.00 | 0.00 | 77 | 1017.4 |
| 20260902212848 | 86 | 47 | 10.0 | 16.0 | 0.00 | 0.00 | 0.00 | 77 | 1017.7 |
| 20260902212347 | 87 | 51 | 9.0 | 14.0 | 0.00 | 0.00 | 0.00 | 76 | 1017.7 |
| 20260902211903 | 87 | 57 | 9.0 | 14.0 | 0.00 | 0.00 | 0.00 | 76 | 1017.7 |
| 20260902211608 | 87 | 50 | 10.0 | 16.0 | 0.00 | 0.00 | 0.00 | 75 | 1017.4 |
| 20260902210847 | 87 | 26 | 11.0 | 17.0 | 0.00 | 0.00 | 0.00 | 76 | 1017.1 |
| 20260902210349 | 87 | 62 | 11.0 | 17.0 | 0.00 | 0.00 | 0.00 | 75 | 1017.2 |
| 20260902205848 | 88 | 67 | 10.0 | 15.0 | 0.00 | 0.00 | 0.00 | 75 | 1017.4 |
| 20260902205349 | 88 | 55 | 9.0 | 15.0 | 0.00 | 0.00 | 0.00 | 76 | 1017.3 |
| 20260902204852 | 88 | 68 | 8.0 | 14.0 | 0.00 | 0.00 | 0.00 | 76 | 1017.3 |
| 20260902204348 | 88 | 59 | 6.0 | 13.0 | 0.00 | 0.00 | 0.00 | 76 | 1017.3 |
| 20260902203849 | 88 | 41 | 5.0 | 11.0 | 0.00 | 0.00 | 0.00 | 76 | 1017.2 |
| 20260902203609 | 88 | 50 | 7.0 | 12.0 | 0.00 | 0.00 | 0.00 | 76 | 1017.3 |
| 20260902203109 | 89 | 48 | 8.0 | 12.0 | 0.00 | 0.00 | 0.00 | 76 | 1017.3 |
| 20260902202347 | 89 | 51 | 8.0 | 12.0 | 0.00 | 0.00 | 0.00 | 76 | 1017.3 |
| 20260902201849 | 89 | 47 | 8.0 | 13.0 | 0.00 | 0.00 | 0.00 | 76 | 1017.2 |
| 20260902201352 | 89 | 61 | 7.0 | 13.0 | 0.00 | 0.00 | 0.00 | 75 | 1017.1 |
| 20260902200848 | 89 | 59 | 5.0 | 10.0 | 0.00 | 0.00 | 0.00 | 76 | 1017.0 |
| 20260902200348 | 89 | 65 | 6.0 | 14.0 | 0.00 | 0.00 | 0.00 | 77 | 1017.1 |
| 20260902195854 | 89 | 43 | 7.0 | 14.0 | 0.00 | 0.00 | 0.00 | 76 | 1017.1 |
| 20260902195338 | 89 | 52 | 7.0 | 14.0 | 0.00 | 0.00 | 0.00 | 75 | 1017.0 |
| 20260902194831 | 89 | 94 | 7.0 | 14.0 | 0.00 | 0.00 | 0.00 | 75 | 1017.0 |
| 20260902194550 | 89 | 50 | 5.0 | 12.0 | 0.00 | 0.00 | 0.00 | 75 | 1017.1 |
| 20260902193820 | 89 | 93 | 5.0 | 10.0 | 0.00 | 0.00 | 0.00 | 77 | 1017.1 |
| 20260902193314 | 89 | 36 | 5.0 | 10.0 | 0.00 | 0.00 | 0.00 | 77 | 1017.1 |